Lexington, KY

7:06 AM EST on January 16, 2018 (GMT -0500)
Blue Grass

Weather History for KLEX - September, 2014

Change the Weather History Date:

Saturday, September 27, 2014

  Actual Average Record
Temperature  
Mean Temperature 72 °F 64 °F  
Max Temperature 85 °F 74 °F 91 °F (1939)
Min Temperature 59 °F 53 °F 37 °F (1942)
Degree Days  
Heating Degree Days 0 4  
Month to date heating degree days 28 38  
Since 1 July heating degree days 30 40  
Cooling Degree Days 7 3  
Month to date cooling degree days 148 139  
Year to date cooling degree days 1229 1156  
Growing Degree Days 22 (Base 50)    
Moisture  
Dew Point 56 °F    
Average Humidity 59    
Maximum Humidity 84    
Minimum Humidity 34    
Precipitation  
Precipitation 0.00 in 0.10 in 1.61 in (1964)
Month to date precipitation 4.35 2.61  
Year to date precipitation 44.08 34.28  
Snow  
Snow 0.00 in 0.00 in - ()
Month to date snowfall 0.0 0.0  
Since 1 July snowfall 0.0 0.0  
Since 1 September snowfall 0.0 0.0  
Snow Depth 0.00 in    
Sea Level Pressure  
Sea Level Pressure 30.16 in    
Wind  
Wind Speed 6 mph (East)    
Max Wind Speed 14 mph    
Max Gust Speed 17 mph    
Visibility 10 miles    
Events      
T = Trace of Precipitation, MM = Missing Value Source: NWS Daily Summary

Daily Weather History Graph

Daily Weather History Graph

Search for Another Location

Airport or City:

Trip Planner

Search our weather history database for the weather conditions in past years. The results will help you decide how hot, cold, wet, or windy it might be!

Date:

Astronomy

Sep. 27, 2014 Rise Set
Actual Time 7:30 AM EDT 7:27 PM EDT
Civil Twilight 7:04 AM EDT 7:53 PM EDT
Nautical Twilight 6:33 AM EDT 8:24 PM EDT
Astronomical Twilight 6:02 AM EDT 8:55 PM EDT
Moon 10:41 AM EDT (9/27) 9:30 PM EDT (9/27)
Length of Visible Light 12h 49m
Length of Day
11h 57m
Waxing Crescent, 11% of the Moon is Illuminated
Sep 27
Waxing Crescent
Oct 1
First Quarter
Oct 8
Full
Oct 15
Last Quarter
Oct 23
New

Hourly Weather History & Observations

Time (EDT) Temp. Heat Index Dew Point Humidity Pressure Visibility Wind Dir Wind Speed Gust Speed Precip Events Conditions
12:54 AM 63.0 °F - 53.1 °F 70% 30.18 in 10.0 mi ENE 4.6 mph - N/A   Clear
1:54 AM 61.0 °F - 54.0 °F 78% 30.17 in 10.0 mi NE 3.5 mph - N/A   Clear
2:54 AM 60.1 °F - 54.0 °F 80% 30.17 in 10.0 mi Calm Calm - N/A   Clear
3:54 AM 62.1 °F - 54.0 °F 75% 30.16 in 10.0 mi NE 9.2 mph - N/A   Clear
4:54 AM 61.0 °F - 54.0 °F 78% 30.17 in 10.0 mi NE 4.6 mph - N/A   Clear
5:54 AM 61.0 °F - 53.1 °F 75% 30.17 in 10.0 mi ENE 8.1 mph - N/A   Clear
6:54 AM 61.0 °F - 53.1 °F 75% 30.18 in 10.0 mi ENE 5.8 mph - N/A   Clear
7:54 AM 60.1 °F - 53.1 °F 78% 30.19 in 10.0 mi Calm Calm - N/A   Clear
8:54 AM 64.0 °F - 55.9 °F 75% 30.20 in 10.0 mi ENE 4.6 mph - N/A   Clear
9:54 AM 71.1 °F - 59.0 °F 66% 30.21 in 10.0 mi East 5.8 mph - N/A   Clear
10:54 AM 75.9 °F - 60.1 °F 58% 30.21 in 10.0 mi East 8.1 mph - N/A   Clear
11:54 AM 79.0 °F - 59.0 °F 50% 30.20 in 10.0 mi East 6.9 mph - N/A   Clear
12:54 PM 81.0 °F 81.3 °F 59.0 °F 47% 30.18 in 10.0 mi East 6.9 mph - N/A   Clear
1:54 PM 82.9 °F 82.6 °F 57.9 °F 42% 30.17 in 10.0 mi ENE 10.4 mph - N/A   Partly Cloudy
2:54 PM 84.0 °F 82.9 °F 55.0 °F 37% 30.15 in 10.0 mi East 9.2 mph - N/A   Clear
3:54 PM 84.9 °F 83.7 °F 55.9 °F 37% 30.13 in 10.0 mi East 9.2 mph - N/A   Clear
4:54 PM 84.0 °F 82.6 °F 54.0 °F 35% 30.12 in 10.0 mi ENE 6.9 mph - N/A   Clear
5:54 PM 82.0 °F 81.6 °F 55.9 °F 41% 30.12 in 10.0 mi East 5.8 mph - N/A   Partly Cloudy
6:54 PM 79.0 °F - 57.0 °F 47% 30.12 in 10.0 mi East 8.1 mph - N/A   Clear
7:54 PM 75.9 °F - 55.9 °F 50% 30.12 in 10.0 mi East 4.6 mph - N/A   Clear
8:54 PM 73.9 °F - 57.0 °F 55% 30.13 in 10.0 mi East 4.6 mph - N/A   Clear
9:54 PM 71.1 °F - 59.0 °F 66% 30.14 in 10.0 mi ESE 4.6 mph - N/A   Clear
10:54 PM 69.1 °F - 59.0 °F 70% 30.14 in 10.0 mi East 3.5 mph - N/A   Clear
11:54 PM 64.9 °F - 59.0 °F 81% 30.13 in 10.0 mi ESE 3.5 mph - N/A   Clear